Location: Cicognara
(44.9500°N, 10.4667°E)
Time: 07:29:32
(UTC+00:00)

Lacrosse 4 Rocket - Pass Details

Date: 28 October 2021
Orbit: 537 x 619 km, 68.0° (Epoch: 07 December)

Event Time Altitude Azimuth Distance (km) Brightness Sun altitude
Rises 17:45:20 0° 317° (NW) 2,831 5.6 -17.0°
Reaches altitude 10° 17:47:54 10° 303° (WNW) 1,939 4.9 -17.5°
Maximum altitude 17:51:20 23° 251° (WSW) 1,294 4.0 -18.1°
Drops below altitude 10° 17:54:49 10° 199° (SSW) 1,959 4.4 -18.7°
Sets 17:57:26 0° 185° (S) 2,867 5.0 -19.2°
